Retour au catalogue

STARLINK-5958

ActifCommunicationsVLEO
NORAD 56921·PAYLOAD·🇺🇸 United States

Lancé Jun 12, 2023 depuis Cape Canaveral Space Force Station

Loading…

Prochains Passages (prochaines 24 heures)

TLE

FraisSource: CelesTrak SupGP

Époque: Sep 15, 2026, 02:49 UTC

1 56921C 23083AX  26258.11784722 -.00035820  00000+0 -12972-2 0  2584
2 56921  43.0009  80.5941 0001529 267.3199  37.8899 15.27601900    18

Suivez STARLINK-5958 en temps réel avec AllMySat

Download on the App Store